Location: ????
(30.1475°N, 31.1342°E)
Time: 14:43:22
(UTC+00:00)

Cosmos 1605 Rocket - Pass Details

Date: 09 April 2023
Orbit: 943 x 1006 km, 82.9° (Epoch: 28 May)

Event Time Altitude Azimuth Distance (km) Brightness Sun altitude
Rises 02:05:00 0° 154° (SSE) 3,693 7.1 -19.8°
Reaches altitude 10° 02:07:53 10° 143° (SE) 2,755 6.5 -19.2°
Maximum altitude 02:13:06 28° 87° (E) 1,794 6.1 -18.1°
Drops below altitude 10° 02:18:21 10° 32° (NNE) 2,783 7.1 -17.1°
Sets 02:21:15 0° 21° (NNE) 3,738 7.7 -16.5°
